Myrtle Beach, SC

9:24 AM EST on February 23, 2017 (GMT -0500)
Myrtle Beach International

Weather History for KMYR - October, 2012

Change the Weather History Date:

Friday, October 26, 2012

  Actual Average Record
Temperature  
Mean Temperature 71 °F -  
Max Temperature 80 °F 70 °F 83 °F (1949)
Min Temperature 62 °F 50 °F 35 °F (2013)
Cooling Degree Days 6    
Growing Degree Days 21 (Base 50)    
Moisture  
Dew Point 64 °F    
Average Humidity 88    
Maximum Humidity 100    
Minimum Humidity 61    
Precipitation  
Precipitation 0.00 in - - ()
Sea Level Pressure  
Sea Level Pressure 29.94 in    
Wind  
Wind Speed 11 mph (NNE)    
Max Wind Speed 21 mph    
Max Gust Speed 29 mph    
Visibility 10 miles    
Events      
Averages and records for this station are not official NWS values.
T = Trace of Precipitation, MM = Missing Value Source: NWS Daily Summary

Daily Weather History Graph

Daily Weather History Graph

Search for Another Location

Airport or City:

Trip Planner

Search our weather history database for the weather conditions in past years. The results will help you decide how hot, cold, wet, or windy it might be!

Date:

Astronomy

Oct. 26, 2012 Rise Set
Actual Time 7:29 AM EDT 6:28 PM EDT
Civil Twilight 7:04 AM EDT 6:54 PM EDT
Nautical Twilight 6:35 AM EDT 7:23 PM EDT
Astronomical Twilight 6:06 AM EDT 7:52 PM EDT
Moon 4:37 PM EDT (10/26) 4:31 AM EDT (10/26)
Length of Visible Light 11h 49m
Length of Day
10h 58m
Waxing Gibbous, 91% of the Moon is Illuminated
Oct 26
Waxing Gibbous
Oct 29
Full
Nov 6
Last Quarter
Nov 13
New
Nov 20
First Quarter

Hourly Weather History & Observations

Time (EDT) Temp. Heat Index Dew Point Humidity Pressure Visibility Wind Dir Wind Speed Gust Speed Precip Events Conditions
12:15 AM 66.2 °F - 64.4 °F 94% 30.05 in 10.0 mi North 8.1 mph - N/A   Clear
12:35 AM 66.2 °F - 64.4 °F 94% 30.04 in 10.0 mi NNE 6.9 mph - N/A   Clear
12:55 AM 64.4 °F - 62.6 °F 94% 30.04 in 10.0 mi NNE 6.9 mph - N/A   Clear
1:15 AM 66.2 °F - 64.4 °F 94% 30.03 in 10.0 mi NNE 8.1 mph - N/A   Clear
1:35 AM 64.4 °F - 62.6 °F 94% 30.02 in 10.0 mi NNE 9.2 mph - N/A   Clear
2:15 AM 64.4 °F - 62.6 °F 94% 30.01 in 10.0 mi NNE 6.9 mph - N/A   Clear
2:35 AM 64.4 °F - 64.4 °F 100% 30.01 in 10.0 mi NNE 6.9 mph - N/A   Clear
2:55 AM 64.4 °F - 62.6 °F 94% 30.00 in 10.0 mi NNE 8.1 mph - N/A   Clear
3:15 AM 64.4 °F - 64.4 °F 100% 29.99 in 10.0 mi NNE 8.1 mph - N/A   Clear
3:35 AM 64.4 °F - 64.4 °F 100% 29.99 in 10.0 mi NNE 8.1 mph - N/A   Clear
3:55 AM 64.4 °F - 64.4 °F 100% 29.99 in 10.0 mi NNE 8.1 mph - N/A   Clear
4:15 AM 64.4 °F - 64.4 °F 100% 29.98 in 10.0 mi NNE 10.4 mph - N/A   Clear
4:35 AM 64.4 °F - 62.6 °F 94% 29.99 in 10.0 mi NNE 10.4 mph - N/A   Clear
4:55 AM 64.4 °F - 64.4 °F 100% 29.99 in 10.0 mi NNE 11.5 mph - N/A   Clear
5:15 AM 64.4 °F - 64.4 °F 100% 29.98 in 10.0 mi NNE 12.7 mph - N/A   Clear
5:35 AM 64.4 °F - 64.4 °F 100% 29.98 in 10.0 mi NNE 11.5 mph - N/A   Clear
5:55 AM 64.4 °F - 64.4 °F 100% 29.98 in 10.0 mi NNE 11.5 mph - N/A   Clear
6:50 AM 64.4 °F - 62.6 °F 94% 29.99 in 10.0 mi NNE 11.5 mph - N/A   Clear
7:45 AM 62.6 °F - 59.0 °F 88% 29.98 in 10.0 mi NNE 11.5 mph - N/A   Clear
8:45 AM 64.4 °F - 57.2 °F 77% 29.99 in 10.0 mi NNE 17.3 mph - N/A   Clear
9:45 AM 68.0 °F - 57.2 °F 68% 30.00 in 10.0 mi NNE 17.3 mph - N/A   Clear
10:57 AM 80.6 °F 82.7 °F 66.2 °F 61% 29.74 in 12.0 mi North 20.7 mph 28.8 mph N/A   Mostly Cloudy
11:45 AM 73.4 °F - 64.4 °F 73% 29.98 in 10.0 mi NNE 17.3 mph - N/A   Clear
12:50 PM 73.4 °F - 64.4 °F 73% 29.94 in 10.0 mi NNE 17.3 mph - N/A   Mostly Cloudy
1:50 PM 73.4 °F - 64.4 °F 73% 29.91 in 10.0 mi NNE 19.6 mph - N/A   Mostly Cloudy
3:50 PM 73.4 °F - 64.4 °F 73% 29.87 in 10.0 mi NNE 18.4 mph - N/A   Mostly Cloudy
4:50 PM 73.4 °F - 64.4 °F 73% 29.86 in 10.0 mi NNE 17.3 mph - N/A   Mostly Cloudy
5:45 PM 71.6 °F - 64.4 °F 78% 29.85 in 10.0 mi North 19.6 mph - N/A   Mostly Cloudy
6:45 PM 69.8 °F - 64.4 °F 83% 29.85 in 10.0 mi North 18.4 mph - N/A   Mostly Cloudy
7:49 PM 69.8 °F - 66.2 °F 88% 29.85 in 10.0 mi North 17.3 mph 23.0 mph N/A   Mostly Cloudy
8:45 PM 69.8 °F - 66.2 °F 88% 29.84 in 10.0 mi NNE 20.7 mph - N/A   Overcast
9:50 PM 69.8 °F - 66.2 °F 88% 29.83 in 10.0 mi NNE 15.0 mph 25.3 mph N/A   Drizzle
10:55 PM 69.8 °F - 66.2 °F 88% 29.81 in 10.0 mi North 16.1 mph 20.7 mph N/A   Overcast
11:15 PM 69.8 °F - 66.2 °F 88% 29.81 in 10.0 mi North 16.1 mph 24.2 mph N/A   Mostly Cloudy
11:35 PM 69.8 °F - 66.2 °F 88% 29.80 in 10.0 mi North 12.7 mph - N/A   Mostly Cloudy
11:55 PM 69.8 °F - 66.2 °F 88% 29.79 in 10.0 mi North 15.0 mph - N/A   Mostly Cloudy